Regional Weather Roundup
Issued by NWS

Home | Current Version | Previous Version | Graphics & Text | Print | Product List | Glossary On
Versions: 1 2 3 4 5 6 7 8 9 10 11 12 13 14 15 16 17 18 19 20 21 22 23 24 25 26 27 28 29 30 31 32 33 34 35 36 37 38 39 40 41 42 43 44 45 46 47 48 49 50
261
ASUS45 KSLC 240510
RWRUT

UTAH REGIONAL WEATHER ROUNDUP
NATIONAL WEATHER SERVICE SALT LAKE CITY UT
1100 PM MDT SAT JUL 23 2016

UTZ001>011-023>025-240600-

NORTHERN UTAH

CITY           SKY/WX    TMP DP  RH WIND       PRES   REMARKS
BRIGHAM CITY     N/A     78  25  14 N6        30.05S
HILL AFB       CLEAR     74  25  15 SE12      30.08R
LOGAN          CLEAR     70  38  31 N6        30.09R
OGDEN          CLEAR     72  29  20 S6        30.05R
PROVO AIRPORT  CLEAR     73  46  38 NE5       30.05R
SALT LAKE CITY CLEAR     78  31  17 S3        30.03R
VERNAL         PTCLDY    79  26  14 NE5       30.08R
WENDOVER       CLEAR     81  30  16 NW7       30.06R
HEBER CITY     CLEAR     63  34  34 CALM      30.14R

$$

UTZ012>022-026-027-240600-

SOUTHERN/CENTRAL UTAH

CITY           SKY/WX    TMP DP  RH WIND       PRES   REMARKS
BLANDING       PTCLDY    79  37  21 N14G21    30.20S
BRYCE CANYON   CLEAR     61  33  35 W6        30.30R
CEDAR CITY     CLEAR     79  30  16 SE7       30.10R
DELTA          CLEAR     81  25  12 NE16G22   30.03R
MILFORD        CLEAR     84  24  11 N13       30.03R
MOAB/CYNLANDS  PTCLDY    82  39  21 NE5       29.98R
PRICE          PTCLDY    77  25  14 CALM      30.12R
ST GEORGE      CLEAR     91  34  13 S3        29.87S

$$

REGIONAL REPORTS     COLORADO/ARIZONA

CITY           SKY/WX    TMP DP  RH WIND       PRES   REMARKS
CRAIG, CO      CLOUDY    70  39  32 CALM      30.19F
GRAND JUNCTION PTCLDY    83  42  23 W12G22    30.05R
RIFLE          CLOUDY    72  41  32 VRB5      30.13R
MONTROSE       CLOUDY    73  45  36 E6        30.15R
CORTEZ         CLOUDY    70  45  40 NE3       30.15R
PAGE, AZ       PTCLDY    94  35  12 CALM      29.96R
GRAND CANYON   MOCLDY    72  48  42 SW5       30.25R
KINGMAN        CLEAR     90  48  23 SW13      29.96R
FLAGSTAFF      CLOUDY    73  43  33 NW9       30.30F

$$

REGIONAL REPORTS    NEVADA/IDAHO/WYOMING

CITY           SKY/WX    TMP DP  RH WIND       PRES   REMARKS
LAS VEGAS, NV  CLEAR    101  31   8 SW5       29.75R HX  94
ELY            CLEAR     71  20  14 N5        30.19R
ELKO           CLEAR     70  19  14 E7        30.13R
POCATELLO, ID  CLEAR     71  29  21 S14       30.11R
BURLEY         CLEAR     63  33  32 SW9       30.10R
EVANSTON, WY   CLEAR     69  14  12 NW5       30.28R
ROCK SPRINGS   CLEAR     67  20  16 NW7       30.24R
KEMMERER         N/A     59  28  31 N12       30.30R

$$




USA.gov is the U.S. government's official web portal to all federal, state and local government web resources and services.